User: anonymous   Login
Location: Unspecified
(0.0000°N, 0.0000°E)
Time: 05:19:29
(UTC+00:00)
Language:

GEOEYE 1 - Orbit

View from above orbital plane
View from above orbital plane
View from above satellite
View from above satellite

Ground track
Ground track

The orbit data is extracted from the following two-line orbital elements,

1 33331U 08042A   15117.85024020  .00000581  00000-0  11860-3 0  9996
2 33331 098.1085 193.6651 0009262 190.6281 169.4713 14.64517762354762
Epoch (UTC): 27 April 2015 20:24:20
Eccentricity: 0.0009262
inclination: 98.1085°
perigee height: 672 km
apogee height: 685 km
right ascension of ascending node: 193.6651°
argument of perigee: 190.6281°
revolutions per day: 14.64517762
mean anomaly at epoch: 169.4713°
orbit number at epoch: 35476

The dashed part of the orbit path shows where the satellite is in the earth's shadow,  

DLR